| time (UTC) | temp F | wind direction | speed MPH | gust MPH | rain 1hr in | rain 24hr in | rain mn in | humidity % | barometer mb |
| 20260504222616 | 84 | 180 | 5.0 | 8.0 | 0.00 | 0.00 | 0.00 | 46 | 1009.1 |
| 20260504221640 | 84 | 158 | 5.0 | 7.0 | 0.00 | 0.00 | 0.00 | 48 | 1009.3 |
| 20260504220616 | 83 | 0 | 7.0 | 9.0 | 0.00 | 0.00 | 0.00 | 46 | 1009.5 |
| 20260504215640 | 83 | 135 | 6.0 | 8.0 | 0.00 | 0.00 | 0.00 | 47 | 1009.7 |
| 20260504214617 | 83 | 158 | 5.0 | 9.0 | 0.00 | 0.00 | 0.00 | 47 | 1009.7 |
| 20260504213640 | 84 | 225 | 2.0 | 4.0 | 0.00 | 0.00 | 0.00 | 46 | 1009.7 |
| 20260504212617 | 83 | 0 | 3.0 | 5.0 | 0.00 | 0.00 | 0.00 | 46 | 1010.0 |
| 20260504211640 | 84 | 180 | 7.0 | 11.0 | 0.00 | 0.00 | 0.00 | 44 | 1010.1 |
| 20260504210616 | 84 | 135 | 3.0 | 6.0 | 0.00 | 0.00 | 0.00 | 44 | 1010.4 |
| 20260504205640 | 83 | 90 | 4.0 | 5.0 | 0.00 | 0.00 | 0.00 | 44 | 1010.3 |
| 20260504204617 | 83 | 0 | 4.0 | 7.0 | 0.00 | 0.00 | 0.00 | 42 | 1010.7 |
| 20260504203640 | 84 | 90 | 5.0 | 7.0 | 0.00 | 0.00 | 0.00 | 43 | 1011.0 |
| 20260504202616 | 84 | 135 | 5.0 | 8.0 | 0.00 | 0.00 | 0.00 | 43 | 1011.1 |
| 20260504201640 | 85 | 90 | 1.0 | 2.0 | 0.00 | 0.00 | 0.00 | 44 | 1011.3 |
| 20260504200616 | 83 | 180 | 5.0 | 8.0 | 0.00 | 0.00 | 0.00 | 43 | 1011.4 |
| 20260504195640 | 83 | 180 | 3.0 | 4.0 | 0.00 | 0.00 | 0.00 | 43 | 1011.7 |
| 20260504194616 | 83 | 180 | 5.0 | 7.0 | 0.00 | 0.00 | 0.00 | 42 | 1011.7 |
| 20260504193641 | 82 | 225 | 6.0 | 9.0 | 0.00 | 0.00 | 0.00 | 43 | 1011.7 |
| 20260504192617 | 82 | 225 | 5.0 | 6.0 | 0.00 | 0.00 | 0.00 | 42 | 1011.9 |
| 20260504191641 | 82 | 180 | 8.0 | 11.0 | 0.00 | 0.00 | 0.00 | 41 | 1012.3 |
| 20260504190617 | 82 | 225 | 6.0 | 9.0 | 0.00 | 0.00 | 0.00 | 41 | 1012.4 |
| 20260504185641 | 82 | 180 | 7.0 | 11.0 | 0.00 | 0.00 | 0.00 | 41 | 1012.5 |
| 20260504184616 | 82 | 225 | 5.0 | 7.0 | 0.00 | 0.00 | 0.00 | 40 | 1012.3 |
| 20260504183641 | 82 | 158 | 3.0 | 5.0 | 0.00 | 0.00 | 0.00 | 41 | 1012.6 |
| 20260504182616 | 80 | 135 | 4.0 | 6.0 | 0.00 | 0.00 | 0.00 | 43 | 1012.8 |
| 20260504181641 | 80 | 225 | 3.0 | 6.0 | 0.00 | 0.00 | 0.00 | 43 | 1012.8 |
| 20260504180617 | 80 | 180 | 4.0 | 7.0 | 0.00 | 0.00 | 0.00 | 43 | 1013.1 |
| 20260504175641 | 80 | 180 | 5.0 | 9.0 | 0.00 | 0.00 | 0.00 | 44 | 1013.3 |
| 20260504174616 | 80 | 248 | 7.0 | 14.0 | 0.00 | 0.00 | 0.00 | 44 | 1013.6 |
| 20260504173640 | 79 | 135 | 4.0 | 5.0 | 0.00 | 0.00 | 0.00 | 44 | 1013.7 |
| 20260504172616 | 78 | 270 | 4.0 | 7.0 | 0.00 | 0.00 | 0.00 | 43 | 1014.0 |
| 20260504171640 | 78 | 225 | 6.0 | 9.0 | 0.00 | 0.00 | 0.00 | 45 | 1014.2 |
| 20260504170616 | 78 | 180 | 5.0 | 7.0 | 0.00 | 0.00 | 0.00 | 44 | 1014.5 |
| 20260504150616 | 71 | 180 | 3.0 | 5.0 | 0.00 | 0.00 | 0.00 | 55 | 1015.4 |
| 20260504140657 | 68 | 0 | 3.0 | 6.0 | 0.00 | 0.00 | 0.00 | 61 | 1015.5 |
| 20260504130616 | 64 | 0 | 3.0 | 4.0 | 0.00 | 0.00 | 0.00 | 67 | 1015.6 |
| 20260504110616 | 61 | 180 | 3.0 | 5.0 | 0.00 | 0.00 | 0.00 | 70 | 1015.2 |
| 20260504100129 | 61 | 180 | 1.0 | 3.0 | 0.00 | 0.00 | 0.00 | 70 | 1015.4 |
| 20260504090129 | 62 | 225 | 1.0 | 1.0 | 0.00 | 0.00 | 0.00 | 64 | 1015.7 |
| 20260504081104 | 63 | 90 | 1.0 | 2.0 | 0.00 | 0.00 | 0.00 | 59 | 1016.0 |
| 20260504050617 | 64 | 90 | 1.0 | 1.0 | 0.00 | 0.00 | 0.00 | 56 | 1017.6 |
| 20260504045641 | 63 | 180 | 1.0 | 3.0 | 0.00 | 0.00 | 0.00 | 61 | 1018.0 |
| 20260504044637 | 63 | 45 | 1.0 | 1.0 | 0.00 | 0.00 | 0.00 | 61 | 1017.9 |
| 20260504043641 | 63 | 135 | 1.0 | 1.0 | 0.00 | 0.00 | 0.00 | 60 | 1017.7 |
| 20260504042617 | 62 | 0.0 | 2.0 | 0.00 | 0.00 | 0.00 | 60 | 1017.8 | |
| 20260504041641 | 63 | 0.0 | 1.0 | 0.00 | 0.00 | 0.00 | 60 | 1017.9 | |
| 20260504040617 | 63 | 0.0 | 1.0 | 0.00 | 0.00 | 0.00 | 59 | 1017.8 | |
| 20260504035641 | 63 | 0.0 | 1.0 | 0.00 | 0.00 | 0.00 | 58 | 1018.1 | |
| 20260504034617 | 64 | 0.0 | 1.0 | 0.00 | 0.00 | 0.00 | 53 | 1017.9 | |
| 20260504033641 | 64 | 0.0 | 0.0 | 0.00 | 0.00 | 0.00 | 53 | 1017.7 | |
| 20260504032637 | 64 | 0.0 | 1.0 | 0.00 | 0.00 | 0.00 | 52 | 1017.8 | |
| 20260504031641 | 65 | 0.0 | 1.0 | 0.00 | 0.00 | 0.00 | 51 | 1017.6 | |
| 20260504030617 | 65 | 0.0 | 1.0 | 0.00 | 0.00 | 0.00 | 51 | 1017.7 | |
| 20260504025641 | 65 | 135 | 1.0 | 2.0 | 0.00 | 0.00 | 0.00 | 51 | 1017.5 |
| 20260504024637 | 66 | 0.0 | 1.0 | 0.00 | 0.00 | 0.00 | 50 | 1017.8 | |
| 20260504023701 | 66 | 0.0 | 1.0 | 0.00 | 0.00 | 0.00 | 50 | 1017.4 | |
| 20260504022617 | 67 | 0.0 | 1.0 | 0.00 | 0.00 | 0.00 | 49 | 1017.7 | |
| 20260504021641 | 67 | 0.0 | 1.0 | 0.00 | 0.00 | 0.00 | 47 | 1017.7 | |
| 20260504020617 | 68 | 135 | 1.0 | 1.0 | 0.00 | 0.00 | 0.00 | 45 | 1017.4 |
| 20260504015641 | 68 | 90 | 1.0 | 1.0 | 0.00 | 0.00 | 0.00 | 45 | 1017.4 |
| 20260504014617 | 69 | 293 | 1.0 | 2.0 | 0.00 | 0.00 | 0.00 | 44 | 1017.4 |
| 20260504013701 | 69 | 135 | 1.0 | 1.0 | 0.00 | 0.00 | 0.00 | 43 | 1017.3 |
| 20260504012617 | 70 | 0 | 1.0 | 1.0 | 0.00 | 0.00 | 0.00 | 41 | 1017.4 |
| 20260504011641 | 71 | 90 | 1.0 | 2.0 | 0.00 | 0.00 | 0.00 | 41 | 1017.5 |
| 20260504010637 | 72 | 90 | 1.0 | 2.0 | 0.00 | 0.00 | 0.00 | 40 | 1017.1 |
| 20260504005701 | 73 | 135 | 1.0 | 2.0 | 0.00 | 0.00 | 0.00 | 36 | 1017.2 |
| 20260504004638 | 74 | 90 | 1.0 | 1.0 | 0.00 | 0.00 | 0.00 | 34 | 1017.1 |
| 20260504003641 | 75 | 135 | 3.0 | 5.0 | 0.00 | 0.00 | 0.00 | 33 | 1017.2 |
| 20260504002637 | 76 | 135 | 2.0 | 3.0 | 0.00 | 0.00 | 0.00 | 34 | 1017.2 |
| 20260504001641 | 78 | 180 | 2.0 | 3.0 | 0.00 | 0.00 | 0.00 | 32 | 1017.1 |
| 20260504000617 | 80 | 270 | 3.0 | 4.0 | 0.00 | 0.00 | 0.00 | 30 | 1017.3 |
| 20260503235701 | 80 | 90 | 1.0 | 2.0 | 0.00 | 0.00 | 0.00 | 30 | 1017.4 |
| 20260503234617 | 80 | 135 | 2.0 | 3.0 | 0.00 | 0.00 | 0.00 | 30 | 1017.3 |
| 20260503233641 | 82 | 0 | 2.0 | 3.0 | 0.00 | 0.00 | 0.00 | 25 | 1017.3 |
| 20260503232617 | 82 | 68 | 5.0 | 6.0 | 0.00 | 0.00 | 0.00 | 24 | 1017.4 |
| 20260503231641 | 83 | 225 | 5.0 | 7.0 | 0.00 | 0.00 | 0.00 | 23 | 1017.4 |
| 20260503230617 | 83 | 180 | 2.0 | 3.0 | 0.00 | 0.00 | 0.00 | 24 | 1017.5 |
| 20260503225641 | 84 | 90 | 1.0 | 3.0 | 0.00 | 0.00 | 0.00 | 23 | 1017.7 |
| 20260503224617 | 84 | 135 | 1.0 | 3.0 | 0.00 | 0.00 | 0.00 | 23 | 1017.6 |
| 20260503223641 | 85 | 270 | 3.0 | 4.0 | 0.00 | 0.00 | 0.00 | 22 | 1017.9 |